When you browse on this site, cookies collect data to enhance your experience and personalize the content and advertising you see.
Visit our Privacy Policy to learn more. By continuing to use the site, you agree to this use of cookies and data.
  • In Czech Republic
  • List of Countries
  • For 7 days
  • Water Temperature
  • Weather Map
  • Weather Widgets
  • user-avatar
    Login

    Hourly Weather Lunino

    Today, 10 April, Friday

    Time Temperature Precipitation Wind Pressure Humidity
    00:00 +8°C° 0 mm 5 mps 741 mmHg 72%
    01:00 +8°C° 0 mm 5 mps 740 mmHg 72%
    02:00 +8°C° 0 mm 5 mps 740 mmHg 73%
    03:00 +7°C° 1.2 mm 5 mps 740 mmHg 80%
    04:00 +7°C° 1.2 mm 4 mps 740 mmHg 86%
    05:00 +7°C° 1.2 mm 4 mps 739 mmHg 93%
    06:00 +7°C° 0.4 mm 4 mps 740 mmHg 90%
    07:00 +7°C° 0.4 mm 4 mps 740 mmHg 88%
    08:00 +7°C° 0.4 mm 4 mps 740 mmHg 85%
    09:00 +7°C° 0.1 mm 4 mps 740 mmHg 79%
    10:00 +7°C° 0.1 mm 5 mps 741 mmHg 73%
    11:00 +7°C° 0.1 mm 5 mps 741 mmHg 67%
    12:00 +8°C° 0 mm 6 mps 741 mmHg 61%
    13:00 +8°C° 0 mm 6 mps 742 mmHg 55%
    14:00 +9°C° 0 mm 6 mps 742 mmHg 49%
    15:00 +8°C° 0 mm 6 mps 742 mmHg 50%
    16:00 +8°C° 0 mm 5 mps 742 mmHg 50%
    17:00 +7°C° 0 mm 5 mps 742 mmHg 51%
    18:00 +6°C° 0 mm 4 mps 743 mmHg 55%
    19:00 +5°C° 0 mm 4 mps 743 mmHg 60%
    20:00 +4°C° 0 mm 3 mps 744 mmHg 65%
    21:00 +4°C° 0 mm 3 mps 744 mmHg 68%
    22:00 +3°C° 0 mm 3 mps 744 mmHg 71%
    23:00 +2°C° 0 mm 3 mps 744 mmHg 75%

    Tomorrow, 11 April, Saturday

    Time Temperature Precipitation Wind Pressure Humidity
    00:00 +2°C° 0 mm 3 mps 744 mmHg 76%
    01:00 +1°C° 0 mm 3 mps 744 mmHg 78%
    02:00 +1°C° 0 mm 3 mps 744 mmHg 79%
    03:00 0°C° 0 mm 3 mps 744 mmHg 80%
    04:00 0°C° 0 mm 3 mps 744 mmHg 80%
    05:00 +1°C° 0 mm 2 mps 744 mmHg 80%
    06:00 +1°C° 0 mm 3 mps 744 mmHg 75%
    07:00 +2°C° 0 mm 3 mps 744 mmHg 70%
    08:00 +3°C° 0 mm 4 mps 745 mmHg 65%
    09:00 +3°C° 0.3 mm 5 mps 745 mmHg 64%
    10:00 +3°C° 0.3 mm 6 mps 745 mmHg 64%
    11:00 +3°C° 0.3 mm 7 mps 745 mmHg 63%
    12:00 +4°C° 0.1 mm 7 mps 745 mmHg 57%
    13:00 +4°C° 0.1 mm 7 mps 745 mmHg 51%
    14:00 +4°C° 0.1 mm 7 mps 745 mmHg 45%
    15:00 +4°C° 0 mm 7 mps 745 mmHg 44%
    16:00 +4°C° 0 mm 7 mps 745 mmHg 42%
    17:00 +4°C° 0 mm 6 mps 746 mmHg 41%
    18:00 +3°C° 0 mm 6 mps 746 mmHg 48%
    19:00 +1°C° 0 mm 6 mps 747 mmHg 55%
    20:00 0°C° 0 mm 5 mps 747 mmHg 62%
    21:00 0°C° 0 mm 5 mps 748 mmHg 64%
    22:00 0°C° 0 mm 5 mps 748 mmHg 67%
    23:00 -1°C° 0 mm 5 mps 749 mmHg 69%

    Day after tomorrow, 12 April, Sunday

    Time Temperature Precipitation Wind Pressure Humidity
    00:00 -1°C° 0 mm 5 mps 749 mmHg 68%
    01:00 -2°C° 0 mm 5 mps 749 mmHg 67%
    02:00 -3°C° 0 mm 4 mps 749 mmHg 66%
    03:00 -3°C° 0 mm 4 mps 750 mmHg 69%
    04:00 -3°C° 0 mm 4 mps 750 mmHg 71%
    05:00 -3°C° 0 mm 4 mps 750 mmHg 73%
    06:00 -2°C° 0 mm 5 mps 750 mmHg 66%
    07:00 0°C° 0 mm 5 mps 750 mmHg 60%
    08:00 +1°C° 0 mm 6 mps 750 mmHg 53%
    09:00 +2°C° 0 mm 6 mps 750 mmHg 49%
    10:00 +3°C° 0 mm 5 mps 750 mmHg 46%
    11:00 +3°C° 0 mm 5 mps 750 mmHg 42%
    12:00 +5°C° 0 mm 5 mps 750 mmHg 42%
    13:00 +5°C° 0 mm 5 mps 750 mmHg 41%
    14:00 +6°C° 0 mm 5 mps 749 mmHg 41%
    15:00 +6°C° 0 mm 4 mps 749 mmHg 42%
    16:00 +6°C° 0 mm 4 mps 749 mmHg 44%
    17:00 +5°C° 0 mm 3 mps 749 mmHg 46%
    18:00 +4°C° 0 mm 3 mps 749 mmHg 52%
    19:00 +4°C° 0 mm 2 mps 749 mmHg 58%
    20:00 +4°C° 0 mm 1 mps 749 mmHg 65%
    21:00 +3°C° 0 mm 2 mps 748 mmHg 68%
    22:00 +3°C° 0 mm 2 mps 748 mmHg 70%
    23:00 +2°C° 0 mm 2 mps 748 mmHg 73%

    13 April, Monday

    Time Temperature Precipitation Wind Pressure Humidity
    00:00 +1°C° 0 mm 3 mps 748 mmHg 75%
    01:00 +1°C° 0 mm 3 mps 747 mmHg 78%
    02:00 +1°C° 0 mm 3 mps 747 mmHg 80%
    03:00 0°C° 0 mm 4 mps 747 mmHg 75%
    04:00 0°C° 0 mm 4 mps 746 mmHg 71%
    05:00 +1°C° 0 mm 5 mps 746 mmHg 66%
    06:00 +2°C° 0 mm 5 mps 745 mmHg 60%
    07:00 +3°C° 0 mm 6 mps 745 mmHg 55%
    08:00 +4°C° 0 mm 7 mps 745 mmHg 49%
    09:00 +6°C° 0 mm 7 mps 744 mmHg 48%
    10:00 +7°C° 0 mm 8 mps 744 mmHg 47%
    11:00 +10°C° 0 mm 8 mps 743 mmHg 45%
    12:00 +11°C° 0 mm 8 mps 743 mmHg 46%
    13:00 +11°C° 0 mm 8 mps 742 mmHg 46%
    14:00 +12°C° 0 mm 9 mps 742 mmHg 46%
    15:00 +12°C° 0 mm 8 mps 741 mmHg 49%
    16:00 +12°C° 0 mm 7 mps 741 mmHg 52%
    17:00 +12°C° 0 mm 7 mps 740 mmHg 54%
    18:00 +11°C° 0 mm 7 mps 740 mmHg 57%
    19:00 +10°C° 0 mm 7 mps 740 mmHg 59%
    20:00 +9°C° 0 mm 7 mps 740 mmHg 62%
    21:00 +9°C° 0 mm 7 mps 739 mmHg 63%
    22:00 +8°C° 0 mm 7 mps 739 mmHg 64%
    23:00 +7°C° 0 mm 8 mps 738 mmHg 65%

    14 April, Tuesday

    Time Temperature Precipitation Wind Pressure Humidity
    00:00 +7°C° 0 mm 8 mps 738 mmHg 66%
    01:00 +7°C° 0 mm 8 mps 737 mmHg 68%
    02:00 +6°C° 0 mm 8 mps 737 mmHg 70%
    03:00 +6°C° 0 mm 8 mps 736 mmHg 71%
    04:00 +6°C° 0 mm 8 mps 736 mmHg 71%
    05:00 +5°C° 0 mm 8 mps 736 mmHg 72%
    06:00 +6°C° 0 mm 9 mps 736 mmHg 69%
    07:00 +7°C° 0 mm 9 mps 736 mmHg 65%
    08:00 +7°C° 0 mm 10 mps 735 mmHg 61%
    09:00 +8°C° 0 mm 10 mps 735 mmHg 56%
    10:00 +9°C° 0 mm 11 mps 735 mmHg 51%
    11:00 +11°C° 0 mm 11 mps 735 mmHg 47%
    12:00 +11°C° 0 mm 11 mps 735 mmHg 46%
    13:00 +12°C° 0 mm 11 mps 735 mmHg 45%
    14:00 +12°C° 0 mm 10 mps 735 mmHg 45%
    15:00 +11°C° 0.1 mm 9 mps 735 mmHg 49%
    16:00 +11°C° 0.1 mm 7 mps 735 mmHg 54%
    17:00 +11°C° 0.1 mm 6 mps 735 mmHg 58%
    18:00 +10°C° 0.2 mm 7 mps 735 mmHg 63%
    19:00 +9°C° 0.2 mm 7 mps 735 mmHg 68%
    20:00 +7°C° 0.2 mm 8 mps 735 mmHg 73%
    21:00 +6°C° 1.1 mm 7 mps 735 mmHg 78%
    22:00 +5°C° 1.1 mm 7 mps 735 mmHg 83%
    23:00 +5°C° 1.1 mm 6 mps 735 mmHg 88%

    15 April, Wednesday

    Time Temperature Precipitation Wind Pressure Humidity
    00:00 +4°C° 0.4 mm 6 mps 734 mmHg 89%
    01:00 +3°C° 0.4 mm 5 mps 734 mmHg 91%
    02:00 +2°C° 0.4 mm 5 mps 733 mmHg 92%
    03:00 +2°C° 0.6 mm 5 mps 733 mmHg 92%
    04:00 +3°C° 0.6 mm 4 mps 732 mmHg 93%
    05:00 +3°C° 0.6 mm 4 mps 732 mmHg 93%
    06:00 +3°C° 1.9 mm 4 mps 731 mmHg 93%
    07:00 +3°C° 1.9 mm 4 mps 731 mmHg 93%
    08:00 +3°C° 1.9 mm 4 mps 730 mmHg 92%
    09:00 +3°C° 1.2 mm 5 mps 730 mmHg 93%
    10:00 +3°C° 1.2 mm 5 mps 729 mmHg 93%
    11:00 +3°C° 1.2 mm 5 mps 729 mmHg 93%
    12:00 +4°C° 0.7 mm 6 mps 728 mmHg 90%
    13:00 +4°C° 0.7 mm 7 mps 728 mmHg 86%
    14:00 +4°C° 0.7 mm 8 mps 728 mmHg 83%
    15:00 +2°C° 0 mm 8 mps 728 mmHg 82%
    16:00 +1°C° 0 mm 8 mps 728 mmHg 81%
    17:00 0°C° 0 mm 8 mps 728 mmHg 80%
    18:00 -1°C° 0 mm 8 mps 728 mmHg 82%
    19:00 -1°C° 0 mm 8 mps 729 mmHg 85%
    20:00 -2°C° 0 mm 8 mps 729 mmHg 87%
    21:00 -2°C° 0.1 mm 7 mps 730 mmHg 89%
    22:00 -2°C° 0.1 mm 7 mps 730 mmHg 91%
    23:00 -2°C° 0.1 mm 7 mps 730 mmHg 93%
    Show more